BAW78 DGAA-EGLL

Flight info

Callsign BAW78
Flight time 6h 20m
Altitude 38000
Route LITEX1D LITEX DCT KILMO DCT TATAT DCT IPUTA DCT ABALA DCT MIGNI DCT EREBO UA604 TMS UA615 GHA UB726 KAHIL UZ333 ZEM UB16 PECES DCT MAMOM DCT ELTAN DCT MHN DCT MEROS DCT LAPIT DCT CHELY DCT LUMAS DCT SOFFY DCT MRM DCT MTL DCT ETREK DCT MADOT DCT MOPEM DCT CACHI DCT AVLON DCT OKRIX DCT BRY DCT CLM DCT KOPOR DCT ABNUR DCT DIMAL DCT ALESO
Aircraft A35K/H-SDE2E3GHIJ3J4J5LM1ORWXY/LB1D1

Departure

Time 2026-05-05 11:05
Airport Kotoka International Airport (DGAA)

Arrival

Time 2026-05-05 17:25
Airport London Heathrow Airport (EGLL)
Time Latitude Longitude Altitude Speed Heading
2026-05-05 09:50 5.60252 -0.17138 201 ft 0 kts 25°
2026-05-05 10:54 5.60249 -0.17139 201 ft 3 kts 25°
2026-05-05 10:55 5.60225 -0.17151 214 ft 4 kts 25°
2026-05-05 10:55 5.60200 -0.17162 215 ft 4 kts 25°
2026-05-05 10:55 5.60176 -0.17173 214 ft 4 kts 25°
2026-05-05 10:55 5.60170 -0.17176 214 ft 5 kts 25°
2026-05-05 10:58 5.60173 -0.17175 214 ft 1 kts 25°
2026-05-05 10:58 5.60188 -0.17164 216 ft 4 kts 34°
2026-05-05 10:58 5.60218 -0.17122 214 ft 10 kts 60°
2026-05-05 10:59 5.60263 -0.17052 212 ft 13 kts 51°
2026-05-05 10:59 5.60341 -0.17008 212 ft 14 kts 23°
2026-05-05 10:59 5.60436 -0.16966 209 ft 16 kts 23°
2026-05-05 10:59 5.60544 -0.16922 216 ft 18 kts 22°
2026-05-05 11:00 5.60663 -0.16871 214 ft 20 kts 23°
2026-05-05 11:00 5.60795 -0.16821 211 ft 21 kts 20°
2026-05-05 11:00 5.60929 -0.16766 215 ft 21 kts 24°
2026-05-05 11:00 5.61060 -0.16710 215 ft 21 kts 24°
2026-05-05 11:01 5.61194 -0.16651 214 ft 21 kts 24°
2026-05-05 11:01 5.61333 -0.16593 217 ft 22 kts 18°
2026-05-05 11:01 5.61475 -0.16541 217 ft 22 kts 21°
2026-05-05 11:01 5.61604 -0.16479 214 ft 18 kts 40°
2026-05-05 11:02 5.61613 -0.16371 218 ft 15 kts 114°
2026-05-05 11:02 5.61534 -0.16321 214 ft 12 kts 177°
2026-05-05 11:02 5.61453 -0.16343 219 ft 12 kts 201°
2026-05-05 11:02 5.61445 -0.16346 220 ft 0 kts 201°
2026-05-05 11:04 5.61441 -0.16348 211 ft 2 kts 201°
2026-05-05 11:04 5.61377 -0.16373 215 ft 33 kts 201°
2026-05-05 11:04 5.60939 -0.16550 215 ft 99 kts 202°
2026-05-05 11:05 5.60142 -0.16877 212 ft 152 kts 202°
2026-05-05 11:05 5.59074 -0.17311 595 ft 169 kts 199°
2026-05-05 11:05 5.57970 -0.17731 1218 ft 174 kts 199°
2026-05-05 11:05 5.56713 -0.17993 1522 ft 196 kts 174°
2026-05-05 11:06 5.55487 -0.17313 1884 ft 214 kts 131°
2026-05-05 11:06 5.55005 -0.15911 2432 ft 224 kts 92°
2026-05-05 11:06 5.55497 -0.14395 3008 ft 230 kts 62°
2026-05-05 11:06 5.56204 -0.12975 3577 ft 231 kts 69°
2026-05-05 11:07 5.56694 -0.11444 4204 ft 230 kts 74°
2026-05-05 11:07 5.57349 -0.09938 4620 ft 245 kts 61°
2026-05-05 11:07 5.58485 -0.08591 4973 ft 261 kts 40°
2026-05-05 11:07 5.60089 -0.07692 5630 ft 267 kts 24°
2026-05-05 11:08 5.61858 -0.07010 6350 ft 270 kts 24°
2026-05-05 11:08 5.63590 -0.06342 7032 ft 272 kts 25°
2026-05-05 11:08 5.65355 -0.05641 7743 ft 274 kts 26°
2026-05-05 11:08 5.67126 -0.04926 8462 ft 276 kts 26°
2026-05-05 11:09 5.68910 -0.04198 9235 ft 277 kts 27°
2026-05-05 11:09 5.70703 -0.03464 10006 ft 278 kts 27°
2026-05-05 11:09 5.72527 -0.02711 10468 ft 291 kts 27°
2026-05-05 11:09 5.74454 -0.01912 10773 ft 309 kts 27°
2026-05-05 11:10 5.76501 -0.01068 11068 ft 326 kts 27°
2026-05-05 11:10 5.77943 -0.00472 11272 ft 336 kts 27°
2026-05-05 11:10 5.80886 0.00744 11673 ft 355 kts 27°
2026-05-05 11:10 5.82446 0.01386 11870 ft 362 kts 27°
2026-05-05 11:11 5.84796 0.02352 12334 ft 369 kts 26°
2026-05-05 11:11 5.87162 0.03323 12855 ft 373 kts 26°
2026-05-05 11:11 5.89578 0.04315 13389 ft 377 kts 27°
2026-05-05 11:11 5.92038 0.05254 13881 ft 383 kts 22°
2026-05-05 11:12 5.94685 0.05770 14344 ft 393 kts
2026-05-05 11:12 5.97451 0.05621 14798 ft 404 kts 354°
2026-05-05 11:12 6.00204 0.05000 15275 ft 409 kts 350°
2026-05-05 11:12 6.02972 0.04300 15763 ft 411 kts 349°
2026-05-05 11:13 6.05759 0.03604 16218 ft 414 kts 349°
2026-05-05 11:13 6.08564 0.02911 16708 ft 416 kts 349°
2026-05-05 11:13 6.11379 0.02220 17168 ft 419 kts 349°
2026-05-05 11:13 6.14225 0.01523 17637 ft 422 kts 349°
2026-05-05 11:14 6.17078 0.00826 18109 ft 424 kts 348°
2026-05-05 11:14 6.19956 0.00124 18513 ft 427 kts 348°
2026-05-05 11:14 6.22851 -0.00582 18900 ft 429 kts 348°
2026-05-05 11:14 6.25766 -0.01294 19283 ft 432 kts 348°
2026-05-05 11:15 6.28690 -0.02007 19708 ft 433 kts 348°
2026-05-05 11:15 6.31624 -0.02722 20091 ft 436 kts 348°
2026-05-05 11:15 6.34580 -0.03443 20467 ft 438 kts 348°
2026-05-05 11:15 6.37544 -0.04166 20863 ft 440 kts 348°
2026-05-05 11:16 6.40518 -0.04891 21261 ft 442 kts 348°
2026-05-05 11:16 6.43527 -0.05625 21653 ft 444 kts 348°
2026-05-05 11:16 6.46543 -0.06361 22057 ft 447 kts 347°
2026-05-05 11:16 6.49573 -0.07100 22467 ft 449 kts 347°
2026-05-05 11:17 6.52608 -0.07840 22853 ft 451 kts 347°
2026-05-05 11:17 6.55669 -0.08587 23264 ft 453 kts 347°
2026-05-05 11:17 6.58710 -0.09294 23632 ft 455 kts 350°
2026-05-05 11:17 6.61859 -0.09679 23943 ft 457 kts 359°
2026-05-05 11:18 6.65027 -0.09525 24255 ft 458 kts
2026-05-05 11:18 6.68144 -0.08820 24597 ft 460 kts 18°
2026-05-05 11:18 6.71220 -0.07759 24952 ft 462 kts 20°
2026-05-05 11:18 6.74199 -0.06619 25314 ft 464 kts 22°
2026-05-05 11:19 6.77213 -0.05420 25699 ft 466 kts 22°
2026-05-05 11:19 6.80231 -0.04211 26080 ft 469 kts 22°
2026-05-05 11:19 6.83270 -0.03003 26478 ft 471 kts 21°
2026-05-05 11:19 6.86335 -0.01799 26904 ft 474 kts 21°
2026-05-05 11:20 6.89413 -0.00600 27341 ft 476 kts 21°
2026-05-05 11:20 6.92517 0.00602 27760 ft 479 kts 21°
2026-05-05 11:20 6.95640 0.01808 28156 ft 482 kts 21°
2026-05-05 11:20 6.98773 0.03017 28550 ft 485 kts 21°
2026-05-05 11:21 7.01937 0.04238 28939 ft 487 kts 21°
2026-05-05 11:21 7.05105 0.05460 29315 ft 490 kts 21°
2026-05-05 11:21 7.08300 0.06694 29675 ft 493 kts 21°
2026-05-05 11:21 7.11504 0.07933 30030 ft 495 kts 21°
2026-05-05 11:22 7.14725 0.09179 30327 ft 498 kts 21°
2026-05-05 11:22 7.17962 0.10431 30679 ft 498 kts 21°
2026-05-05 11:22 7.21190 0.11680 31130 ft 496 kts 21°
2026-05-05 11:22 7.24414 0.12929 31544 ft 496 kts 21°
2026-05-05 11:23 7.27634 0.14175 31943 ft 495 kts 21°
2026-05-05 11:23 7.30838 0.15415 32351 ft 494 kts 21°
2026-05-05 11:23 7.34046 0.16656 32755 ft 493 kts 21°
2026-05-05 11:23 7.37238 0.17891 33157 ft 492 kts 21°
2026-05-05 11:24 7.40435 0.19129 33540 ft 491 kts 21°
2026-05-05 11:24 7.43630 0.20366 33911 ft 490 kts 21°
2026-05-05 11:24 7.46800 0.21595 34235 ft 489 kts 21°
2026-05-05 11:24 7.49976 0.22826 34553 ft 489 kts 21°
2026-05-05 11:25 7.53151 0.24055 34863 ft 488 kts 21°
2026-05-05 11:25 7.56313 0.25280 35180 ft 487 kts 21°
2026-05-05 11:25 7.59477 0.26508 35490 ft 486 kts 21°
2026-05-05 11:25 7.62619 0.27726 35859 ft 484 kts 21°
2026-05-05 11:26 7.65759 0.28943 36177 ft 483 kts 21°
2026-05-05 11:26 7.68854 0.30141 36446 ft 482 kts 21°
2026-05-05 11:26 7.71978 0.31352 36721 ft 482 kts 21°
2026-05-05 11:26 7.75107 0.32565 36999 ft 481 kts 21°
2026-05-05 11:27 7.78233 0.33777 37272 ft 480 kts 21°
2026-05-05 11:27 7.81340 0.34982 37547 ft 480 kts 21°
2026-05-05 11:27 7.84458 0.36192 37801 ft 479 kts 21°
2026-05-05 11:27 7.87571 0.37400 37931 ft 481 kts 21°
2026-05-05 11:28 7.90710 0.38618 37937 ft 483 kts 21°
2026-05-05 11:28 7.96987 0.41054 37936 ft 484 kts 21°
2026-05-05 11:29 8.03264 0.43493 37937 ft 483 kts 21°
2026-05-05 11:29 8.09537 0.45931 37934 ft 483 kts 21°
2026-05-05 11:30 8.15824 0.48371 37933 ft 484 kts 20°
2026-05-05 11:30 8.22118 0.50816 37933 ft 484 kts 21°
2026-05-05 11:31 8.28406 0.53261 37932 ft 485 kts 20°
2026-05-05 11:31 8.34703 0.55711 37928 ft 485 kts 21°
2026-05-05 11:32 8.41004 0.58163 37926 ft 485 kts 21°
2026-05-05 11:32 8.47306 0.60617 37923 ft 485 kts 20°
2026-05-05 11:33 8.53607 0.63070 37927 ft 485 kts 21°
2026-05-05 11:33 8.59907 0.65525 37923 ft 485 kts 21°
2026-05-05 11:34 8.66204 0.67979 37919 ft 485 kts 21°
2026-05-05 11:34 8.72505 0.70434 37919 ft 485 kts 21°
2026-05-05 11:35 8.78804 0.72889 37921 ft 485 kts 21°
2026-05-05 11:35 8.85103 0.75345 37918 ft 485 kts 21°
2026-05-05 11:36 8.91407 0.77807 37916 ft 485 kts 21°
2026-05-05 11:36 8.97700 0.80265 37912 ft 485 kts 21°
2026-05-05 11:37 9.03962 0.82711 37917 ft 485 kts 20°
2026-05-05 11:37 9.10256 0.85171 37913 ft 485 kts 20°
2026-05-05 11:38 9.16550 0.87632 37917 ft 485 kts 20°
2026-05-05 11:38 9.22846 0.90092 37914 ft 485 kts 20°
2026-05-05 11:39 9.29130 0.92549 37914 ft 484 kts 20°
2026-05-05 11:39 9.35414 0.95005 37916 ft 484 kts 20°
2026-05-05 11:40 9.41701 0.97466 37916 ft 485 kts 20°
2026-05-05 11:40 9.47691 1.00607 37931 ft 486 kts 35°
2026-05-05 11:41 9.53037 1.04827 37958 ft 488 kts 38°
2026-05-05 11:41 9.58284 1.09205 37977 ft 489 kts 38°
2026-05-05 11:42 9.63524 1.13590 37998 ft 489 kts 38°
2026-05-05 11:42 9.68785 1.17966 38008 ft 489 kts 38°
2026-05-05 11:43 9.74055 1.22340 38003 ft 489 kts 38°
2026-05-05 11:43 9.79321 1.26707 37990 ft 489 kts 38°
2026-05-05 11:44 9.84585 1.31078 37966 ft 489 kts 38°
2026-05-05 11:44 9.89846 1.35449 37940 ft 489 kts 38°
2026-05-05 11:45 9.95110 1.39824 37915 ft 489 kts 38°
2026-05-05 11:45 10.00370 1.44198 37908 ft 489 kts 38°
2026-05-05 11:46 10.05607 1.48552 37904 ft 489 kts 38°
2026-05-05 11:46 10.10873 1.52933 37904 ft 489 kts 38°
2026-05-05 11:47 10.16131 1.57309 37898 ft 489 kts 38°
2026-05-05 11:47 10.21392 1.61691 37895 ft 489 kts 38°
2026-05-05 11:48 10.29275 1.68258 37894 ft 488 kts 38°
2026-05-05 11:48 10.34524 1.72633 37894 ft 488 kts 38°
2026-05-05 11:49 10.39780 1.77016 37889 ft 488 kts 38°
2026-05-05 11:49 10.45023 1.81393 37891 ft 488 kts 38°
2026-05-05 11:50 10.50266 1.85772 37881 ft 488 kts 38°
2026-05-05 11:50 10.55515 1.90154 37884 ft 488 kts 38°
2026-05-05 11:51 10.60763 1.94539 37879 ft 488 kts 38°
2026-05-05 11:51 10.66007 1.98921 37874 ft 488 kts 38°
2026-05-05 11:52 10.71257 2.03311 37876 ft 488 kts 38°
2026-05-05 11:52 10.76500 2.07700 37876 ft 488 kts 37°
2026-05-05 11:53 10.81745 2.12092 37867 ft 489 kts 37°
2026-05-05 11:53 10.86145 2.15776 37873 ft 489 kts 37°
2026-05-05 11:54 10.91363 2.20147 37863 ft 489 kts 37°
2026-05-05 11:54 10.96644 2.24573 37869 ft 489 kts 37°
2026-05-05 11:55 11.02291 2.28362 37875 ft 485 kts 24°
2026-05-05 11:55 11.08367 2.31256 37867 ft 485 kts 22°
2026-05-05 11:56 11.14532 2.34041 37866 ft 485 kts 22°
2026-05-05 11:56 11.20692 2.36821 37867 ft 485 kts 22°
2026-05-05 11:57 11.26874 2.39634 37870 ft 486 kts 22°
2026-05-05 11:57 11.33095 2.42476 37872 ft 486 kts 22°
2026-05-05 11:58 11.39259 2.45294 37871 ft 486 kts 22°
2026-05-05 11:58 11.45395 2.48098 37871 ft 486 kts 22°
2026-05-05 11:59 11.51574 2.50923 37872 ft 487 kts 22°
2026-05-05 11:59 11.57753 2.53749 37870 ft 487 kts 22°
2026-05-05 12:00 11.63927 2.56577 37869 ft 487 kts 22°
2026-05-05 12:00 11.70110 2.59411 37870 ft 487 kts 22°
2026-05-05 12:01 11.76294 2.62244 37871 ft 486 kts 22°
2026-05-05 12:01 11.82477 2.65076 37864 ft 486 kts 21°
2026-05-05 12:02 11.88649 2.67905 37868 ft 486 kts 21°
2026-05-05 12:02 11.94818 2.70736 37867 ft 486 kts 21°
2026-05-05 12:03 12.00988 2.73570 37862 ft 486 kts 21°
2026-05-05 12:03 12.07162 2.76407 37860 ft 486 kts 21°
2026-05-05 12:04 12.13283 2.79221 37862 ft 486 kts 21°
2026-05-05 12:04 12.19444 2.82054 37857 ft 486 kts 21°
2026-05-05 12:05 12.25605 2.84886 37854 ft 486 kts 21°
2026-05-05 12:05 12.31774 2.87723 37852 ft 486 kts 21°
2026-05-05 12:06 12.37931 2.90559 37855 ft 485 kts 21°
2026-05-05 12:06 12.44087 2.93396 37853 ft 485 kts 21°
2026-05-05 12:07 12.50241 2.96235 37852 ft 485 kts 21°
2026-05-05 12:07 12.56403 2.99077 37850 ft 485 kts 21°
2026-05-05 12:08 12.62554 3.01913 37852 ft 485 kts 21°
2026-05-05 12:08 12.68703 3.04750 37848 ft 485 kts 21°
2026-05-05 12:09 12.74850 3.07589 37852 ft 485 kts 20°
2026-05-05 12:09 12.81005 3.10436 37852 ft 485 kts 20°
2026-05-05 12:10 12.87149 3.13279 37853 ft 485 kts 20°
2026-05-05 12:10 12.93292 3.16121 37851 ft 485 kts 20°
2026-05-05 12:11 12.99435 3.18962 37850 ft 484 kts 20°
2026-05-05 12:11 13.05586 3.21811 37852 ft 484 kts 20°
2026-05-05 12:12 13.11723 3.24656 37855 ft 484 kts 20°
2026-05-05 12:12 13.17859 3.27503 37854 ft 484 kts 20°
2026-05-05 12:13 13.23992 3.30350 37840 ft 484 kts 20°
2026-05-05 12:13 13.30134 3.33199 37853 ft 484 kts 19°
2026-05-05 12:14 13.36264 3.36044 37847 ft 484 kts 19°
2026-05-05 12:14 13.42391 3.38891 37841 ft 484 kts 19°
2026-05-05 12:15 13.48485 3.41726 37858 ft 483 kts 19°
2026-05-05 12:15 13.54609 3.44576 37843 ft 483 kts 19°
2026-05-05 12:16 13.60756 3.47387 37844 ft 483 kts 18°
2026-05-05 12:16 13.66913 3.50129 37843 ft 482 kts 18°
2026-05-05 12:17 13.73076 3.52880 37842 ft 482 kts 18°
2026-05-05 12:17 13.79223 3.55640 37841 ft 482 kts 18°
2026-05-05 12:18 13.85375 3.58411 37840 ft 482 kts 18°
2026-05-05 12:18 13.91515 3.61180 37831 ft 482 kts 18°
2026-05-05 12:19 13.97654 3.63946 37826 ft 482 kts 18°
2026-05-05 12:19 14.03761 3.66697 37828 ft 482 kts 18°
2026-05-05 12:20 14.09895 3.69464 37821 ft 481 kts 18°
2026-05-05 12:20 14.16037 3.72237 37825 ft 481 kts 18°
2026-05-05 12:21 14.22167 3.75008 37819 ft 481 kts 18°
2026-05-05 12:21 14.28295 3.77778 37820 ft 481 kts 18°
2026-05-05 12:22 14.34422 3.80546 37811 ft 481 kts 18°
2026-05-05 12:22 14.40556 3.83320 37814 ft 481 kts 18°
2026-05-05 12:23 14.46679 3.86092 37810 ft 481 kts 18°
2026-05-05 12:23 14.52799 3.88867 37806 ft 481 kts 18°
2026-05-05 12:24 14.58917 3.91642 37804 ft 480 kts 18°
2026-05-05 12:24 14.65045 3.94421 37804 ft 480 kts 18°
2026-05-05 12:25 14.71163 3.97196 37801 ft 480 kts 18°
2026-05-05 12:25 14.77280 3.99973 37801 ft 480 kts 18°
2026-05-05 12:26 14.83395 4.02752 37795 ft 480 kts 18°
2026-05-05 12:26 14.89519 4.05538 37798 ft 480 kts 18°
2026-05-05 12:27 14.95632 4.08320 37793 ft 480 kts 18°
2026-05-05 12:27 15.01743 4.11102 37791 ft 480 kts 18°
2026-05-05 12:28 15.07855 4.13885 37795 ft 480 kts 18°
2026-05-05 12:28 15.13976 4.16674 37795 ft 480 kts 18°
2026-05-05 12:29 15.20086 4.19462 37790 ft 480 kts 18°
2026-05-05 12:29 15.26197 4.22253 37791 ft 480 kts 18°
2026-05-05 12:30 15.32263 4.25024 37794 ft 480 kts 18°
2026-05-05 12:30 15.38380 4.27818 37795 ft 480 kts 18°
2026-05-05 12:31 15.44487 4.30610 37793 ft 480 kts 18°
2026-05-05 12:31 15.50604 4.33409 37793 ft 480 kts 18°
2026-05-05 12:32 15.56709 4.36205 37791 ft 480 kts 18°
2026-05-05 12:32 15.62814 4.39004 37792 ft 480 kts 18°
2026-05-05 12:33 15.68919 4.41802 37787 ft 480 kts 17°
2026-05-05 12:33 15.75033 4.44605 37784 ft 480 kts 17°
2026-05-05 12:34 15.81143 4.47411 37785 ft 480 kts 17°
2026-05-05 12:34 15.87245 4.50216 37786 ft 480 kts 17°
2026-05-05 12:35 15.93349 4.53020 37782 ft 480 kts 17°
2026-05-05 12:35 15.99452 4.55826 37782 ft 480 kts 17°
2026-05-05 12:36 16.05520 4.58770 37785 ft 484 kts 23°
2026-05-05 12:36 16.11368 4.62282 37779 ft 486 kts 24°
2026-05-05 12:37 16.17181 4.65888 37777 ft 487 kts 24°
2026-05-05 12:37 16.22992 4.69505 37769 ft 487 kts 24°
2026-05-05 12:38 16.27831 4.72508 37777 ft 487 kts 24°
2026-05-05 12:38 16.33651 4.76114 37779 ft 487 kts 24°
2026-05-05 12:39 16.39473 4.79723 37771 ft 487 kts 24°
2026-05-05 12:39 16.45306 4.83343 37764 ft 488 kts 24°
2026-05-05 12:40 16.51131 4.86961 37777 ft 488 kts 24°
2026-05-05 12:40 16.56956 4.90582 37763 ft 488 kts 24°
2026-05-05 12:41 16.62794 4.94210 37758 ft 488 kts 24°
2026-05-05 12:41 16.68625 4.97836 37763 ft 488 kts 24°
2026-05-05 12:42 16.74464 5.01474 37768 ft 488 kts 24°
2026-05-05 12:42 16.80296 5.05109 37766 ft 488 kts 24°
2026-05-05 12:43 16.86127 5.08748 37767 ft 489 kts 24°
2026-05-05 12:43 16.91961 5.12388 37769 ft 489 kts 24°
2026-05-05 12:44 16.97808 5.16038 37766 ft 489 kts 24°
2026-05-05 12:44 17.03648 5.19689 37767 ft 490 kts 24°
2026-05-05 12:45 17.09493 5.23345 37766 ft 490 kts 24°
2026-05-05 12:45 17.15312 5.26990 37772 ft 490 kts 24°
2026-05-05 12:46 17.21164 5.30658 37765 ft 491 kts 24°
2026-05-05 12:46 17.27032 5.34333 37766 ft 491 kts 24°
2026-05-05 12:47 17.32897 5.38011 37771 ft 492 kts 24°
2026-05-05 12:47 17.38765 5.41697 37768 ft 492 kts 24°
2026-05-05 12:48 17.44645 5.45394 37768 ft 493 kts 24°
2026-05-05 12:48 17.50520 5.49088 37766 ft 493 kts 24°
2026-05-05 12:49 17.56398 5.52786 37765 ft 493 kts 24°
2026-05-05 12:49 17.62280 5.56490 37762 ft 494 kts 24°
2026-05-05 12:50 17.68179 5.60209 37768 ft 494 kts 25°
2026-05-05 12:50 17.74076 5.63930 37766 ft 495 kts 25°
2026-05-05 12:51 17.79984 5.67655 37767 ft 495 kts 25°
2026-05-05 12:51 17.86182 5.70632 37766 ft 487 kts 15°
2026-05-05 12:52 17.92513 5.73149 37770 ft 487 kts 14°
2026-05-05 12:52 17.98868 5.75612 37769 ft 487 kts 14°
2026-05-05 12:53 18.05228 5.78088 37768 ft 488 kts 14°
2026-05-05 12:53 18.11604 5.80584 37768 ft 489 kts 14°
2026-05-05 12:54 18.21172 5.84337 37770 ft 490 kts 14°
2026-05-05 12:55 18.27556 5.86844 37773 ft 490 kts 14°
2026-05-05 12:55 18.33948 5.89358 37769 ft 491 kts 14°
2026-05-05 12:56 18.40357 5.91881 37771 ft 491 kts 14°
2026-05-05 12:56 18.46718 5.94387 37774 ft 492 kts 14°
2026-05-05 12:57 18.53131 5.96912 37775 ft 493 kts 14°
2026-05-05 12:57 18.59552 5.99442 37773 ft 493 kts 15°
2026-05-05 12:58 18.65990 6.01983 37770 ft 494 kts 15°
2026-05-05 12:58 18.72423 6.04525 37774 ft 494 kts 15°
2026-05-05 12:59 18.78860 6.07072 37775 ft 494 kts 15°
2026-05-05 12:59 18.85345 6.09638 37776 ft 495 kts 15°
2026-05-05 13:00 18.94982 6.13452 37774 ft 495 kts 15°
2026-05-05 13:01 19.07905 6.18578 37775 ft 496 kts 15°
2026-05-05 13:01 19.14365 6.21145 37774 ft 496 kts 15°
2026-05-05 13:02 19.20828 6.23714 37774 ft 496 kts 15°
2026-05-05 13:02 19.27305 6.26289 37776 ft 497 kts 15°
2026-05-05 13:03 19.33785 6.28867 37776 ft 497 kts 15°
2026-05-05 13:03 19.40235 6.31437 37777 ft 497 kts 15°
2026-05-05 13:04 19.46709 6.34021 37772 ft 497 kts 15°
2026-05-05 13:04 19.53184 6.36607 37772 ft 498 kts 15°
2026-05-05 13:05 19.59677 6.39199 37773 ft 498 kts 15°
2026-05-05 13:05 19.66164 6.41791 37772 ft 499 kts 15°
2026-05-05 13:06 19.72657 6.44388 37777 ft 499 kts 15°
2026-05-05 13:06 19.79199 6.47009 37776 ft 500 kts 15°
2026-05-05 13:07 19.85669 6.49605 37774 ft 500 kts 15°
2026-05-05 13:07 19.92175 6.52217 37773 ft 500 kts 15°
2026-05-05 13:08 19.98689 6.54831 37772 ft 501 kts 15°
2026-05-05 13:08 20.05242 6.57386 37770 ft 499 kts 11°
2026-05-05 13:09 20.11989 6.58426 37774 ft 485 kts 353°
2026-05-05 13:09 20.18497 6.57181 37778 ft 471 kts 335°
2026-05-05 13:10 20.24609 6.54718 37776 ft 469 kts 333°
2026-05-05 13:10 20.30670 6.52111 37778 ft 469 kts 333°
2026-05-05 13:11 20.36722 6.49519 37778 ft 469 kts 333°
2026-05-05 13:11 20.42791 6.46946 37782 ft 469 kts 333°
2026-05-05 13:12 20.48854 6.44386 37786 ft 469 kts 333°
2026-05-05 13:12 20.54915 6.41828 37772 ft 469 kts 334°
2026-05-05 13:13 20.60984 6.39263 37778 ft 468 kts 333°
2026-05-05 13:13 20.67039 6.36699 37782 ft 468 kts 333°
2026-05-05 13:14 20.73093 6.34131 37779 ft 468 kts 333°
2026-05-05 13:14 20.79117 6.31574 37795 ft 469 kts 333°
2026-05-05 13:15 20.85176 6.29002 37784 ft 469 kts 333°
2026-05-05 13:15 20.91248 6.26424 37784 ft 469 kts 333°
2026-05-05 13:16 20.97319 6.23844 37790 ft 469 kts 333°
2026-05-05 13:16 21.03377 6.21263 37786 ft 469 kts 333°
2026-05-05 13:17 21.09445 6.18675 37790 ft 469 kts 333°
2026-05-05 13:17 21.15504 6.16092 37791 ft 469 kts 333°
2026-05-05 13:18 21.21563 6.13508 37795 ft 469 kts 334°
2026-05-05 13:18 21.27619 6.10924 37791 ft 469 kts 334°
2026-05-05 13:19 21.33642 6.08350 37794 ft 468 kts 333°
2026-05-05 13:19 21.39692 6.05758 37792 ft 468 kts 333°
2026-05-05 13:20 21.45744 6.03164 37796 ft 469 kts 334°
2026-05-05 13:20 21.51807 6.00565 37798 ft 469 kts 334°
2026-05-05 13:21 21.57859 5.97971 37804 ft 468 kts 334°
2026-05-05 13:21 21.63908 5.95375 37800 ft 468 kts 334°
2026-05-05 13:22 21.69966 5.92771 37804 ft 468 kts 334°
2026-05-05 13:22 21.74984 5.90610 37805 ft 468 kts 334°
2026-05-05 13:23 21.81036 5.88002 37809 ft 468 kts 334°
2026-05-05 13:23 21.87080 5.85399 37807 ft 468 kts 334°
2026-05-05 13:24 21.93122 5.82795 37814 ft 468 kts 334°
2026-05-05 13:24 21.99172 5.80184 37817 ft 468 kts 334°
2026-05-05 13:25 22.05212 5.77572 37815 ft 468 kts 334°
2026-05-05 13:25 22.11243 5.74963 37824 ft 467 kts 334°
2026-05-05 13:26 22.17274 5.72351 37829 ft 467 kts 334°
2026-05-05 13:26 22.23314 5.69735 37832 ft 467 kts 334°
2026-05-05 13:27 22.29340 5.67123 37837 ft 467 kts 334°
2026-05-05 13:27 22.35325 5.64525 37844 ft 467 kts 334°
2026-05-05 13:28 22.41385 5.61892 37847 ft 466 kts 334°
2026-05-05 13:28 22.47373 5.59289 37842 ft 466 kts 334°
2026-05-05 13:29 22.53386 5.56668 37930 ft 466 kts 334°
2026-05-05 13:29 22.59396 5.54047 38001 ft 466 kts 334°
2026-05-05 13:30 22.65414 5.51422 38070 ft 466 kts 334°
2026-05-05 13:30 22.71424 5.48801 38119 ft 465 kts 334°
2026-05-05 13:31 22.77432 5.46177 38131 ft 465 kts 334°
2026-05-05 13:31 22.83707 5.44259 38132 ft 472 kts 345°
2026-05-05 13:32 22.90204 5.43113 38127 ft 474 kts 347°
2026-05-05 13:32 22.96730 5.42073 38075 ft 474 kts 347°
2026-05-05 13:33 23.03266 5.41029 38026 ft 474 kts 347°
2026-05-05 13:33 23.09754 5.39977 37974 ft 474 kts 347°
2026-05-05 13:34 23.16315 5.38903 37925 ft 474 kts 346°
2026-05-05 13:34 23.22827 5.37834 37927 ft 473 kts 346°
2026-05-05 13:35 23.29337 5.36762 37922 ft 474 kts 346°
2026-05-05 13:35 23.35816 5.35698 37921 ft 473 kts 346°
2026-05-05 13:36 23.42326 5.34628 37914 ft 473 kts 346°
2026-05-05 13:36 23.48845 5.33556 37902 ft 473 kts 346°
2026-05-05 13:37 23.55351 5.32483 37900 ft 473 kts 346°
2026-05-05 13:37 23.61866 5.31407 37892 ft 473 kts 346°
2026-05-05 13:38 23.68367 5.30331 37889 ft 473 kts 346°
2026-05-05 13:38 23.74881 5.29255 37888 ft 473 kts 346°
2026-05-05 13:39 23.81381 5.28183 37888 ft 473 kts 346°
2026-05-05 13:39 23.87879 5.27109 37884 ft 472 kts 346°
2026-05-05 13:40 23.94330 5.26037 37885 ft 472 kts 346°
2026-05-05 13:40 24.00874 5.24949 37885 ft 472 kts 346°
2026-05-05 13:41 24.07312 5.23879 37889 ft 471 kts 346°
2026-05-05 13:41 24.13785 5.22804 37892 ft 470 kts 346°
2026-05-05 13:42 24.20250 5.21730 37886 ft 470 kts 346°
2026-05-05 13:42 24.26714 5.20654 37891 ft 469 kts 345°
2026-05-05 13:43 24.33161 5.19575 37891 ft 469 kts 345°
2026-05-05 13:43 24.39609 5.18497 37891 ft 469 kts 345°
2026-05-05 13:44 24.46057 5.17419 37887 ft 469 kts 345°
2026-05-05 13:44 24.52508 5.16341 37882 ft 469 kts 345°
2026-05-05 13:45 24.58967 5.15259 37884 ft 469 kts 345°
2026-05-05 13:45 24.65418 5.14179 37877 ft 469 kts 345°
2026-05-05 13:46 24.71879 5.13094 37878 ft 470 kts 345°
2026-05-05 13:46 24.78364 5.12003 37872 ft 471 kts 345°
2026-05-05 13:47 24.84854 5.10909 37864 ft 473 kts 345°
2026-05-05 13:47 24.91360 5.09813 37859 ft 474 kts 345°
2026-05-05 13:48 24.97879 5.08717 37856 ft 474 kts 345°
2026-05-05 13:48 25.04418 5.07615 37850 ft 474 kts 344°
2026-05-05 13:49 25.10946 5.06511 37846 ft 475 kts 344°
2026-05-05 13:49 25.17480 5.05407 37846 ft 475 kts 344°
2026-05-05 13:50 25.24028 5.04299 37842 ft 476 kts 344°
2026-05-05 13:50 25.30566 5.03189 37839 ft 476 kts 344°
2026-05-05 13:51 25.37106 5.02078 37836 ft 476 kts 344°
2026-05-05 13:51 25.43649 5.00967 37838 ft 476 kts 343°
2026-05-05 13:52 25.50163 4.99860 37831 ft 476 kts 343°
2026-05-05 13:52 25.56712 4.98747 37834 ft 476 kts 343°
2026-05-05 13:53 25.63265 4.97630 37839 ft 477 kts 343°
2026-05-05 13:53 25.69864 4.96502 37828 ft 477 kts 343°
2026-05-05 13:54 25.76385 4.95387 37841 ft 477 kts 343°
2026-05-05 13:54 25.82937 4.94268 37843 ft 477 kts 343°
2026-05-05 13:55 25.89487 4.93149 37829 ft 476 kts 343°
2026-05-05 13:55 25.96047 4.92025 37823 ft 476 kts 343°
2026-05-05 13:56 26.02595 4.90900 37825 ft 476 kts 343°
2026-05-05 13:56 26.09151 4.89772 37823 ft 476 kts 343°
2026-05-05 13:57 26.15692 4.88646 37817 ft 475 kts 343°
2026-05-05 13:57 26.22230 4.87523 37813 ft 476 kts 343°
2026-05-05 13:58 26.28781 4.86398 37811 ft 476 kts 343°
2026-05-05 13:58 26.35316 4.85269 37803 ft 475 kts 343°
2026-05-05 13:59 26.45117 4.83573 37802 ft 475 kts 343°
2026-05-05 14:00 26.53807 4.82068 37798 ft 475 kts 343°
2026-05-05 14:00 26.61444 4.80747 37791 ft 475 kts 343°
2026-05-05 14:01 26.67982 4.79615 37789 ft 475 kts 343°
2026-05-05 14:01 26.74519 4.78477 37793 ft 475 kts 343°
2026-05-05 14:02 26.81043 4.77341 37787 ft 475 kts 343°
2026-05-05 14:02 26.87565 4.76205 37787 ft 474 kts 343°
2026-05-05 14:03 26.94086 4.75069 37785 ft 474 kts 343°
2026-05-05 14:03 27.00566 4.73939 37779 ft 474 kts 343°
2026-05-05 14:04 27.07080 4.72800 37780 ft 474 kts 343°
2026-05-05 14:04 27.13592 4.71660 37774 ft 474 kts 343°
2026-05-05 14:05 27.20109 4.70519 37770 ft 474 kts 343°
2026-05-05 14:05 27.26616 4.69380 37769 ft 473 kts 343°
2026-05-05 14:06 27.33122 4.68237 37771 ft 473 kts 343°
2026-05-05 14:06 27.39637 4.67090 37772 ft 473 kts 343°
2026-05-05 14:07 27.46141 4.65944 37771 ft 473 kts 343°
2026-05-05 14:07 27.52645 4.64800 37768 ft 473 kts 343°
2026-05-05 14:08 27.58055 4.63847 37766 ft 473 kts 342°
2026-05-05 14:08 27.64559 4.62699 37762 ft 473 kts 342°
2026-05-05 14:09 27.71073 4.61545 37757 ft 473 kts 342°
2026-05-05 14:09 27.77573 4.60392 37760 ft 473 kts 342°
2026-05-05 14:10 27.84072 4.59241 37760 ft 473 kts 342°
2026-05-05 14:10 27.90572 4.58089 37758 ft 473 kts 342°
2026-05-05 14:11 27.97080 4.56936 37758 ft 473 kts 342°
2026-05-05 14:11 28.03575 4.55780 37758 ft 473 kts 342°
2026-05-05 14:12 28.10081 4.54619 37757 ft 473 kts 342°
2026-05-05 14:12 28.16576 4.53459 37752 ft 473 kts 342°
2026-05-05 14:13 28.23075 4.52300 37752 ft 473 kts 342°
2026-05-05 14:13 28.29579 4.51138 37746 ft 474 kts 342°
2026-05-05 14:14 28.36100 4.49972 37745 ft 474 kts 342°
2026-05-05 14:14 28.42620 4.48802 37746 ft 474 kts 342°
2026-05-05 14:15 28.49085 4.47641 37745 ft 474 kts 342°
2026-05-05 14:15 28.55600 4.46484 37735 ft 474 kts 342°
2026-05-05 14:16 28.62137 4.45350 37735 ft 475 kts 342°
2026-05-05 14:16 28.68666 4.44217 37736 ft 475 kts 342°
2026-05-05 14:17 28.75207 4.43075 37723 ft 475 kts 342°
2026-05-05 14:17 28.81735 4.41929 37724 ft 475 kts 342°
2026-05-05 14:18 28.88263 4.40781 37725 ft 475 kts 342°
2026-05-05 14:18 28.94790 4.39635 37722 ft 475 kts 342°
2026-05-05 14:19 29.01328 4.38486 37719 ft 475 kts 342°
2026-05-05 14:19 29.07859 4.37336 37719 ft 475 kts 341°
2026-05-05 14:20 29.14390 4.36180 37714 ft 475 kts 341°
2026-05-05 14:20 29.20918 4.35025 37710 ft 475 kts 341°
2026-05-05 14:21 29.27454 4.33870 37708 ft 474 kts 341°
2026-05-05 14:21 29.33979 4.32715 37711 ft 476 kts 341°
2026-05-05 14:22 29.40518 4.31554 37709 ft 476 kts 341°
2026-05-05 14:22 29.47053 4.30395 37703 ft 475 kts 341°
2026-05-05 14:23 29.53584 4.29235 37699 ft 474 kts 341°
2026-05-05 14:23 29.60101 4.28073 37702 ft 474 kts 341°
2026-05-05 14:24 29.66618 4.26910 37704 ft 474 kts 341°
2026-05-05 14:24 29.73135 4.25750 37694 ft 474 kts 341°
2026-05-05 14:25 29.79665 4.24605 37697 ft 474 kts 341°
2026-05-05 14:25 29.86182 4.23466 37705 ft 474 kts 341°
2026-05-05 14:26 29.92695 4.22324 37711 ft 473 kts 341°
2026-05-05 14:26 29.99203 4.21181 37711 ft 473 kts 341°
2026-05-05 14:27 30.05674 4.20042 37709 ft 473 kts 341°
2026-05-05 14:27 30.12177 4.18898 37707 ft 473 kts 341°
2026-05-05 14:28 30.18679 4.17751 37712 ft 473 kts 341°
2026-05-05 14:28 30.25190 4.16597 37710 ft 473 kts 341°
2026-05-05 14:29 30.31690 4.15444 37718 ft 473 kts 341°
2026-05-05 14:29 30.38192 4.14293 37717 ft 473 kts 341°
2026-05-05 14:30 30.44702 4.13140 37719 ft 473 kts 341°
2026-05-05 14:30 30.51199 4.11987 37722 ft 472 kts 341°
2026-05-05 14:31 30.57701 4.10828 37722 ft 472 kts 341°
2026-05-05 14:31 30.64193 4.09670 37728 ft 472 kts 341°
2026-05-05 14:32 30.70694 4.08509 37731 ft 472 kts 341°
2026-05-05 14:32 30.77182 4.07351 37735 ft 472 kts 341°
2026-05-05 14:33 30.83667 4.06193 37732 ft 472 kts 341°
2026-05-05 14:33 30.90151 4.05032 37737 ft 471 kts 341°
2026-05-05 14:34 30.96644 4.03865 37737 ft 472 kts 341°
2026-05-05 14:34 31.03129 4.02699 37736 ft 472 kts 341°
2026-05-05 14:35 31.08524 4.01729 37741 ft 472 kts 341°
2026-05-05 14:35 31.16069 4.00371 37748 ft 472 kts 341°
2026-05-05 14:36 31.22559 3.99202 37741 ft 472 kts 341°
2026-05-05 14:36 31.29053 3.98027 37746 ft 473 kts 341°
2026-05-05 14:37 31.35563 3.96848 37744 ft 473 kts 341°
2026-05-05 14:37 31.42068 3.95670 37745 ft 473 kts 341°
2026-05-05 14:38 31.48575 3.94491 37750 ft 474 kts 341°
2026-05-05 14:38 31.55087 3.93309 37750 ft 474 kts 341°
2026-05-05 14:39 31.61615 3.92121 37751 ft 474 kts 341°
2026-05-05 14:39 31.68136 3.90931 37759 ft 474 kts 342°
2026-05-05 14:40 31.74660 3.89740 37758 ft 475 kts 342°
2026-05-05 14:40 31.81187 3.88548 37753 ft 475 kts 342°
2026-05-05 14:41 31.87731 3.87353 37763 ft 475 kts 342°
2026-05-05 14:41 31.94267 3.86158 37748 ft 476 kts 342°
2026-05-05 14:42 32.00806 3.84956 37764 ft 476 kts 342°
2026-05-05 14:42 32.07352 3.83750 37785 ft 476 kts 342°
2026-05-05 14:43 32.13871 3.82550 37817 ft 477 kts 342°
2026-05-05 14:43 32.20431 3.81343 37851 ft 478 kts 342°
2026-05-05 14:44 32.27043 3.80124 37877 ft 478 kts 342°
2026-05-05 14:44 32.33586 3.78914 37887 ft 479 kts 342°
2026-05-05 14:45 32.40271 3.78158 37888 ft 493 kts 353°
2026-05-05 14:45 32.47172 3.78890 37885 ft 501 kts 358°
2026-05-05 14:46 32.54117 3.79907 37859 ft 503 kts 359°
2026-05-05 14:46 32.61059 3.80951 37834 ft 503 kts 359°
2026-05-05 14:47 32.68020 3.81972 37809 ft 504 kts 359°
2026-05-05 14:47 32.74976 3.82976 37789 ft 504 kts 359°
2026-05-05 14:48 32.81945 3.83979 37793 ft 504 kts 359°
2026-05-05 14:48 32.88909 3.84985 37794 ft 505 kts 359°
2026-05-05 14:49 32.95847 3.85994 37799 ft 505 kts 359°
2026-05-05 14:49 33.02871 3.87016 37807 ft 506 kts 359°
2026-05-05 14:50 33.09812 3.88027 37802 ft 506 kts 359°
2026-05-05 14:50 33.16809 3.89033 37807 ft 506 kts 359°
2026-05-05 14:51 33.23798 3.90041 37808 ft 506 kts 359°
2026-05-05 14:51 33.30787 3.91055 37812 ft 506 kts 359°
2026-05-05 14:52 33.37791 3.92075 37815 ft 506 kts 359°
2026-05-05 14:52 33.44786 3.93096 37824 ft 507 kts 359°
2026-05-05 14:53 33.51781 3.94115 37825 ft 507 kts 359°
2026-05-05 14:53 33.57602 3.94963 37823 ft 507 kts 359°
2026-05-05 14:54 33.64601 3.95986 37830 ft 507 kts 359°
2026-05-05 14:54 33.71612 3.97015 37832 ft 507 kts 360°
2026-05-05 14:55 33.78613 3.98044 37830 ft 507 kts 360°
2026-05-05 14:55 33.85614 3.99074 37835 ft 507 kts 360°
2026-05-05 14:56 33.92628 4.00105 37838 ft 507 kts 360°
2026-05-05 14:56 33.99630 4.01135 37843 ft 507 kts 360°
2026-05-05 14:57 34.06643 4.02164 37852 ft 506 kts 359°
2026-05-05 14:57 34.13502 4.02018 37856 ft 492 kts 346°
2026-05-05 14:58 34.20321 4.00991 37863 ft 490 kts 345°
2026-05-05 14:58 34.27027 3.99862 37864 ft 490 kts 345°
2026-05-05 14:59 34.33770 3.98727 37876 ft 490 kts 345°
2026-05-05 14:59 34.40553 3.97603 37877 ft 491 kts 345°
2026-05-05 15:00 34.46219 3.96674 37884 ft 491 kts 345°
2026-05-05 15:00 34.54090 3.95378 37890 ft 491 kts 346°
2026-05-05 15:01 34.60859 3.94263 37893 ft 491 kts 345°
2026-05-05 15:01 34.67638 3.93144 37894 ft 491 kts 346°
2026-05-05 15:02 34.74418 3.92021 37899 ft 491 kts 346°
2026-05-05 15:02 34.81188 3.90896 37899 ft 491 kts 346°
2026-05-05 15:03 34.87960 3.89769 37896 ft 492 kts 346°
2026-05-05 15:03 34.94738 3.88640 37897 ft 492 kts 346°
2026-05-05 15:04 35.01520 3.87511 37890 ft 492 kts 346°
2026-05-05 15:04 35.08268 3.86386 37887 ft 492 kts 346°
2026-05-05 15:05 35.18457 3.84678 37895 ft 493 kts 346°
2026-05-05 15:06 35.25249 3.83538 37898 ft 493 kts 346°
2026-05-05 15:06 35.32057 3.82394 37900 ft 493 kts 346°
2026-05-05 15:07 35.38869 3.81249 37897 ft 494 kts 346°
2026-05-05 15:07 35.45675 3.80103 37891 ft 494 kts 346°
2026-05-05 15:08 35.52476 3.78954 37890 ft 493 kts 346°
2026-05-05 15:08 35.59286 3.77800 37899 ft 493 kts 346°
2026-05-05 15:09 35.66081 3.76648 37906 ft 493 kts 346°
2026-05-05 15:09 35.72871 3.75497 37916 ft 493 kts 346°
2026-05-05 15:10 35.79682 3.74340 37921 ft 494 kts 346°
2026-05-05 15:10 35.86498 3.73180 37931 ft 494 kts 346°
2026-05-05 15:11 35.93272 3.72025 37934 ft 495 kts 346°
2026-05-05 15:11 36.00094 3.70861 37941 ft 495 kts 346°
2026-05-05 15:12 36.06922 3.69693 37943 ft 495 kts 346°
2026-05-05 15:12 36.13742 3.68522 37945 ft 495 kts 346°
2026-05-05 15:13 36.20569 3.67351 37969 ft 496 kts 346°
2026-05-05 15:13 36.27403 3.66178 37960 ft 496 kts 346°
2026-05-05 15:14 36.34243 3.65002 37962 ft 496 kts 346°
2026-05-05 15:14 36.41070 3.63823 37963 ft 495 kts 346°
2026-05-05 15:15 36.47899 3.62640 37967 ft 496 kts 346°
2026-05-05 15:15 36.54732 3.61455 37967 ft 496 kts 346°
2026-05-05 15:16 36.61569 3.60268 37983 ft 496 kts 346°
2026-05-05 15:16 36.68411 3.59081 37984 ft 496 kts 346°
2026-05-05 15:17 36.75248 3.57893 37992 ft 496 kts 346°
2026-05-05 15:17 36.82210 3.57816 37984 ft 508 kts
2026-05-05 15:18 36.89217 3.59191 37973 ft 511 kts
2026-05-05 15:18 36.96191 3.60764 37970 ft 512 kts
2026-05-05 15:19 37.03206 3.62355 37972 ft 513 kts
2026-05-05 15:19 37.10227 3.63923 37963 ft 513 kts
2026-05-05 15:20 37.17262 3.65486 37969 ft 513 kts
2026-05-05 15:20 37.24290 3.67047 37972 ft 513 kts
2026-05-05 15:21 37.31321 3.68610 37969 ft 514 kts
2026-05-05 15:21 37.38369 3.70179 37969 ft 514 kts
2026-05-05 15:22 37.45409 3.71751 37960 ft 514 kts
2026-05-05 15:22 37.52453 3.73329 37966 ft 514 kts
2026-05-05 15:23 37.59501 3.74913 37958 ft 515 kts
2026-05-05 15:23 37.66563 3.76501 37959 ft 515 kts
2026-05-05 15:24 37.73615 3.78086 37959 ft 515 kts
2026-05-05 15:24 37.80669 3.79676 37957 ft 515 kts
2026-05-05 15:25 37.87726 3.81272 37955 ft 515 kts
2026-05-05 15:25 37.94797 3.82875 37954 ft 516 kts
2026-05-05 15:26 38.01868 3.84482 37952 ft 516 kts
2026-05-05 15:26 38.08921 3.86085 37952 ft 516 kts
2026-05-05 15:27 38.15996 3.87697 37947 ft 516 kts
2026-05-05 15:27 38.23063 3.89309 37947 ft 516 kts
2026-05-05 15:28 38.30097 3.90916 37950 ft 516 kts
2026-05-05 15:28 38.37169 3.92537 37946 ft 517 kts
2026-05-05 15:29 38.44244 3.94163 37941 ft 517 kts
2026-05-05 15:29 38.51371 3.95775 37942 ft 516 kts
2026-05-05 15:30 38.58434 3.97109 37941 ft 516 kts
2026-05-05 15:30 38.65538 3.98387 37942 ft 516 kts
2026-05-05 15:31 38.72646 3.99710 37938 ft 517 kts
2026-05-05 15:31 38.79771 4.01067 37933 ft 517 kts
2026-05-05 15:32 38.86889 4.02434 37935 ft 518 kts
2026-05-05 15:32 38.94026 4.03806 37931 ft 518 kts
2026-05-05 15:33 39.01157 4.05175 37925 ft 519 kts
2026-05-05 15:33 39.08295 4.06547 37929 ft 519 kts
2026-05-05 15:34 39.15441 4.07924 37929 ft 520 kts
2026-05-05 15:34 39.22600 4.09310 37922 ft 520 kts
2026-05-05 15:35 39.29756 4.10699 37918 ft 520 kts
2026-05-05 15:35 39.36928 4.12080 37922 ft 521 kts
2026-05-05 15:36 39.44094 4.13463 37920 ft 521 kts
2026-05-05 15:36 39.51267 4.14855 37921 ft 522 kts
2026-05-05 15:37 39.58458 4.16257 37916 ft 522 kts
2026-05-05 15:37 39.65633 4.17660 37913 ft 523 kts
2026-05-05 15:38 39.72836 4.19060 37914 ft 523 kts
2026-05-05 15:38 39.78820 4.20222 37912 ft 523 kts
2026-05-05 15:39 39.86015 4.21625 37912 ft 523 kts
2026-05-05 15:39 39.94370 4.23452 37915 ft 524 kts
2026-05-05 15:40 40.00373 4.24918 37911 ft 525 kts
2026-05-05 15:40 40.07559 4.26662 37910 ft 524 kts
2026-05-05 15:41 40.14734 4.28367 37905 ft 524 kts
2026-05-05 15:41 40.21912 4.30059 37900 ft 524 kts
2026-05-05 15:42 40.29101 4.31755 37902 ft 525 kts
2026-05-05 15:42 40.36285 4.33458 37901 ft 525 kts
2026-05-05 15:43 40.43472 4.35168 37908 ft 525 kts
2026-05-05 15:43 40.50630 4.36871 37897 ft 526 kts
2026-05-05 15:44 40.57833 4.38582 37896 ft 527 kts
2026-05-05 15:44 40.65055 4.40313 37897 ft 527 kts
2026-05-05 15:45 40.72270 4.42048 37899 ft 527 kts
2026-05-05 15:45 40.79488 4.43786 37910 ft 528 kts
2026-05-05 15:46 40.86710 4.45525 37906 ft 528 kts
2026-05-05 15:46 40.93960 4.47268 37902 ft 528 kts
2026-05-05 15:47 41.01189 4.49021 37903 ft 529 kts
2026-05-05 15:47 41.08433 4.50788 37902 ft 529 kts
2026-05-05 15:48 41.15669 4.52562 37902 ft 529 kts
2026-05-05 15:48 41.22908 4.54326 37901 ft 529 kts
2026-05-05 15:49 41.30161 4.56095 37899 ft 529 kts
2026-05-05 15:49 41.37356 4.57855 37902 ft 530 kts
2026-05-05 15:50 41.44604 4.59635 37901 ft 530 kts
2026-05-05 15:50 41.51848 4.61419 37899 ft 530 kts
2026-05-05 15:51 41.59106 4.63210 37901 ft 530 kts
2026-05-05 15:51 41.66351 4.65004 37902 ft 530 kts
2026-05-05 15:52 41.73598 4.66931 37909 ft 534 kts 10°
2026-05-05 15:52 41.80758 4.69609 37908 ft 535 kts 11°
2026-05-05 15:53 41.87904 4.72414 37905 ft 535 kts 11°
2026-05-05 15:53 41.95058 4.75246 37907 ft 535 kts 11°
2026-05-05 15:54 42.02200 4.78069 37914 ft 535 kts 11°
2026-05-05 15:54 42.09343 4.80893 37904 ft 535 kts 11°
2026-05-05 15:55 42.16496 4.83725 37907 ft 535 kts 11°
2026-05-05 15:55 42.23635 4.86557 37912 ft 535 kts 11°
2026-05-05 15:56 42.30773 4.89394 37913 ft 535 kts 11°
2026-05-05 15:56 42.37905 4.92236 37913 ft 535 kts 11°
2026-05-05 15:57 42.45046 4.95091 37908 ft 534 kts 11°
2026-05-05 15:57 42.52172 4.97950 37911 ft 534 kts 12°
2026-05-05 15:58 42.59295 5.00812 37913 ft 534 kts 12°
2026-05-05 15:58 42.66418 5.03676 37911 ft 534 kts 12°
2026-05-05 15:59 42.73551 5.06552 37913 ft 534 kts 12°
2026-05-05 15:59 42.80668 5.09430 37912 ft 534 kts 12°
2026-05-05 16:00 42.87780 5.12316 37912 ft 533 kts 12°
2026-05-05 16:00 42.94890 5.15207 37910 ft 533 kts 12°
2026-05-05 16:01 43.01994 5.18100 37914 ft 532 kts 12°
2026-05-05 16:01 43.09102 5.20995 37912 ft 532 kts 12°
2026-05-05 16:02 43.16190 5.23883 37924 ft 531 kts 12°
2026-05-05 16:02 43.23248 5.26767 37927 ft 531 kts 12°
2026-05-05 16:03 43.30361 5.29682 37931 ft 530 kts 13°
2026-05-05 16:03 43.37492 5.31257 37944 ft 517 kts 354°
2026-05-05 16:03 43.41046 5.30846 37942 ft 508 kts 343°
2026-05-05 16:04 43.44476 5.29672 37945 ft 501 kts 337°
2026-05-05 16:04 43.51068 5.26770 37935 ft 499 kts 335°
2026-05-05 16:05 43.57646 5.23700 37915 ft 499 kts 335°
2026-05-05 16:05 43.64274 5.20619 37912 ft 500 kts 335°
2026-05-05 16:06 43.70838 5.17596 37911 ft 500 kts 336°
2026-05-05 16:06 43.77441 5.14557 37910 ft 501 kts 336°
2026-05-05 16:07 43.84053 5.11507 37911 ft 501 kts 336°
2026-05-05 16:07 43.90669 5.08448 37909 ft 501 kts 336°
2026-05-05 16:08 43.97280 5.05380 37906 ft 502 kts 336°
2026-05-05 16:08 44.03905 5.02299 37888 ft 502 kts 336°
2026-05-05 16:09 44.10519 4.99219 37881 ft 502 kts 336°
2026-05-05 16:09 44.17161 4.96117 37887 ft 502 kts 336°
2026-05-05 16:10 44.23798 4.93011 37881 ft 503 kts 336°
2026-05-05 16:10 44.30425 4.89904 37884 ft 503 kts 336°
2026-05-05 16:11 44.37063 4.86783 37881 ft 503 kts 336°
2026-05-05 16:12 44.50347 4.80513 37878 ft 504 kts 336°
2026-05-05 16:13 44.67632 4.75333 37892 ft 511 kts 347°
2026-05-05 16:13 44.74664 4.73805 37885 ft 511 kts 347°
2026-05-05 16:14 44.88675 4.70706 37890 ft 511 kts 347°
2026-05-05 16:15 45.02755 4.67558 37884 ft 511 kts 347°
2026-05-05 16:16 45.16819 4.64390 37887 ft 512 kts 347°
2026-05-05 16:17 45.27357 4.62005 37883 ft 511 kts 347°
2026-05-05 16:18 45.37856 4.59593 37884 ft 512 kts 347°
2026-05-05 16:19 45.48417 4.57161 37880 ft 512 kts 347°
2026-05-05 16:19 45.58955 4.54732 37883 ft 512 kts 347°
2026-05-05 16:20 45.73022 4.51479 37881 ft 512 kts 347°
2026-05-05 16:22 45.89406 4.47663 37877 ft 512 kts 348°
2026-05-05 16:23 46.03451 4.44379 37871 ft 510 kts 348°
2026-05-05 16:23 46.13963 4.41903 37872 ft 510 kts 348°
2026-05-05 16:24 46.20978 4.40246 37865 ft 510 kts 348°
2026-05-05 16:25 46.31471 4.37698 37863 ft 509 kts 345°
2026-05-05 16:25 46.41752 4.33989 37861 ft 507 kts 342°
2026-05-05 16:26 46.55452 4.28982 37857 ft 508 kts 343°
2026-05-05 16:27 46.62323 4.26559 37855 ft 508 kts 344°
2026-05-05 16:27 46.69192 4.24133 37855 ft 508 kts 344°
2026-05-05 16:28 46.76055 4.21699 37852 ft 508 kts 344°
2026-05-05 16:28 46.82905 4.19262 37850 ft 507 kts 344°
2026-05-05 16:29 46.89772 4.16808 37847 ft 507 kts 344°
2026-05-05 16:29 46.96626 4.14353 37830 ft 507 kts 344°
2026-05-05 16:30 47.03480 4.11895 37846 ft 507 kts 344°
2026-05-05 16:30 47.10157 4.08690 37841 ft 504 kts 336°
2026-05-05 16:31 47.16687 4.04899 37837 ft 504 kts 335°
2026-05-05 16:31 47.23190 4.01026 37837 ft 504 kts 335°
2026-05-05 16:32 47.29689 3.97149 37829 ft 504 kts 335°
2026-05-05 16:32 47.36155 3.93296 37832 ft 504 kts 335°
2026-05-05 16:33 47.42707 3.89391 37833 ft 504 kts 335°
2026-05-05 16:33 47.49038 3.85604 37826 ft 504 kts 335°
2026-05-05 16:34 47.55541 3.81705 37824 ft 505 kts 335°
2026-05-05 16:34 47.62050 3.77802 37818 ft 505 kts 335°
2026-05-05 16:35 47.68520 3.73902 37813 ft 505 kts 335°
2026-05-05 16:35 47.75023 3.69972 37810 ft 505 kts 335°
2026-05-05 16:36 47.81569 3.66003 37809 ft 505 kts 335°
2026-05-05 16:36 47.88035 3.62072 37804 ft 505 kts 335°
2026-05-05 16:37 47.94544 3.58107 37806 ft 505 kts 335°
2026-05-05 16:37 48.01051 3.54139 37807 ft 505 kts 335°
2026-05-05 16:38 48.07559 3.50134 37807 ft 506 kts 335°
2026-05-05 16:38 48.14057 3.46119 37797 ft 505 kts 335°
2026-05-05 16:39 48.20562 3.42096 37800 ft 505 kts 335°
2026-05-05 16:39 48.27057 3.38069 37801 ft 505 kts 335°
2026-05-05 16:40 48.33548 3.34032 37793 ft 505 kts 335°
2026-05-05 16:40 48.40046 3.29982 37796 ft 505 kts 335°
2026-05-05 16:41 48.46521 3.25914 37803 ft 504 kts 335°
2026-05-05 16:41 48.52967 3.21781 37795 ft 504 kts 335°
2026-05-05 16:42 48.59411 3.17633 37798 ft 503 kts 335°
2026-05-05 16:42 48.65860 3.13486 37807 ft 503 kts 335°
2026-05-05 16:43 48.72296 3.09344 37806 ft 503 kts 335°
2026-05-05 16:43 48.78780 3.05162 37810 ft 503 kts 335°
2026-05-05 16:44 48.85142 3.00794 37812 ft 501 kts 329°
2026-05-05 16:44 48.88185 2.98240 37811 ft 501 kts 329°
2026-05-05 16:45 48.91561 2.95334 37811 ft 501 kts 328°
2026-05-05 16:45 48.97562 2.90078 37822 ft 501 kts 328°
2026-05-05 16:46 49.03627 2.84736 37824 ft 501 kts 328°
2026-05-05 16:46 49.09666 2.79416 37827 ft 501 kts 328°
2026-05-05 16:47 49.15663 2.74124 37828 ft 500 kts 328°
2026-05-05 16:47 49.21689 2.68791 37791 ft 500 kts 328°
2026-05-05 16:48 49.24740 2.66087 37425 ft 500 kts 328°
2026-05-05 16:48 49.27743 2.63420 36996 ft 501 kts 328°
2026-05-05 16:48 49.30766 2.60731 36587 ft 502 kts 328°
2026-05-05 16:48 49.33781 2.58045 36170 ft 503 kts 328°
2026-05-05 16:49 49.36811 2.55345 35768 ft 503 kts 328°
2026-05-05 16:49 49.39837 2.52643 35368 ft 504 kts 328°
2026-05-05 16:49 49.42869 2.49931 34989 ft 504 kts 328°
2026-05-05 16:49 49.45895 2.47220 34604 ft 504 kts 328°
2026-05-05 16:50 49.48935 2.44493 34222 ft 505 kts 328°
2026-05-05 16:50 49.51882 2.41845 33862 ft 505 kts 328°
2026-05-05 16:50 49.55016 2.39073 33404 ft 505 kts 329°
2026-05-05 16:50 49.58094 2.36460 32964 ft 506 kts 330°
2026-05-05 16:51 49.61184 2.33884 32524 ft 506 kts 330°
2026-05-05 16:51 49.64285 2.31303 32106 ft 506 kts 330°
2026-05-05 16:51 49.67348 2.28739 31685 ft 510 kts 330°
2026-05-05 16:51 49.70504 2.26079 31263 ft 509 kts 330°
2026-05-05 16:52 49.73593 2.23460 30863 ft 507 kts 330°
2026-05-05 16:52 49.76694 2.20819 30451 ft 507 kts 330°
2026-05-05 16:52 49.79745 2.18212 30039 ft 507 kts 330°
2026-05-05 16:52 49.82835 2.15566 29621 ft 508 kts 330°
2026-05-05 16:53 49.85964 2.12885 29144 ft 506 kts 330°
2026-05-05 16:53 49.89000 2.10281 28712 ft 504 kts 330°
2026-05-05 16:53 49.92054 2.07659 28277 ft 500 kts 330°
2026-05-05 16:53 49.95116 2.05025 27839 ft 497 kts 330°
2026-05-05 16:54 49.98141 2.02419 27407 ft 494 kts 330°
2026-05-05 16:54 50.01137 1.99833 27003 ft 491 kts 330°
2026-05-05 16:54 50.04116 1.97259 26599 ft 488 kts 330°
2026-05-05 16:54 50.07076 1.94698 26224 ft 486 kts 330°
2026-05-05 16:55 50.09989 1.92175 25857 ft 483 kts 330°
2026-05-05 16:55 50.12921 1.89632 25490 ft 481 kts 330°
2026-05-05 16:55 50.15786 1.87007 25118 ft 477 kts 326°
2026-05-05 16:55 50.18450 1.83822 24753 ft 473 kts 317°
2026-05-05 16:56 50.20872 1.80387 24399 ft 470 kts 316°
2026-05-05 16:56 50.23229 1.76872 24037 ft 467 kts 315°
2026-05-05 16:56 50.25517 1.73373 23700 ft 465 kts 314°
2026-05-05 16:56 50.27839 1.69788 23341 ft 462 kts 314°
2026-05-05 16:57 50.30092 1.66304 22928 ft 460 kts 314°
2026-05-05 16:57 50.32392 1.62753 22513 ft 457 kts 314°
2026-05-05 16:57 50.34646 1.59278 22111 ft 454 kts 314°
2026-05-05 16:57 50.36890 1.55822 21715 ft 451 kts 314°
2026-05-05 16:58 50.39126 1.52382 21305 ft 448 kts 314°
2026-05-05 16:58 50.41318 1.49009 20932 ft 446 kts 315°
2026-05-05 16:58 50.43526 1.45607 20556 ft 443 kts 315°
2026-05-05 16:58 50.45714 1.42232 20189 ft 441 kts 315°
2026-05-05 16:59 50.47895 1.38859 19817 ft 438 kts 315°
2026-05-05 16:59 50.50061 1.35500 19442 ft 436 kts 315°
2026-05-05 16:59 50.52134 1.32057 19089 ft 433 kts 312°
2026-05-05 16:59 50.54153 1.28547 18739 ft 431 kts 312°
2026-05-05 17:00 50.56169 1.25059 18391 ft 429 kts 313°
2026-05-05 17:00 50.58178 1.21610 18007 ft 427 kts 313°
2026-05-05 17:00 50.60247 1.18267 17640 ft 424 kts 315°
2026-05-05 17:00 50.61633 1.16111 17480 ft 423 kts 316°
2026-05-05 17:01 50.63721 1.12855 17199 ft 421 kts 315°
2026-05-05 17:01 50.65794 1.09601 16916 ft 419 kts 315°
2026-05-05 17:01 50.67857 1.06346 16627 ft 418 kts 315°
2026-05-05 17:01 50.69904 1.03105 16348 ft 416 kts 315°
2026-05-05 17:02 50.71936 0.99884 16077 ft 414 kts 315°
2026-05-05 17:02 50.73964 0.96661 15809 ft 412 kts 315°
2026-05-05 17:02 50.75982 0.93450 15537 ft 410 kts 315°
2026-05-05 17:02 50.77987 0.90254 15251 ft 408 kts 315°
2026-05-05 17:03 50.79978 0.87078 14978 ft 407 kts 315°
2026-05-05 17:03 50.81962 0.83907 14720 ft 405 kts 315°
2026-05-05 17:03 50.83940 0.80742 14454 ft 403 kts 315°
2026-05-05 17:03 50.85909 0.77588 14193 ft 401 kts 315°
2026-05-05 17:04 50.87833 0.74510 13931 ft 400 kts 315°
2026-05-05 17:04 50.89782 0.71378 13676 ft 398 kts 315°
2026-05-05 17:04 50.91717 0.68262 13391 ft 396 kts 315°
2026-05-05 17:04 50.93639 0.65167 13098 ft 394 kts 315°
2026-05-05 17:05 50.95558 0.62074 12787 ft 392 kts 314°
2026-05-05 17:05 50.97468 0.58993 12496 ft 390 kts 314°
2026-05-05 17:05 50.99367 0.55919 12341 ft 389 kts 314°
2026-05-05 17:05 51.01253 0.52869 12085 ft 387 kts 314°
2026-05-05 17:06 51.03132 0.49825 11823 ft 385 kts 314°
2026-05-05 17:06 51.05008 0.46783 11566 ft 383 kts 314°
2026-05-05 17:06 51.06868 0.43763 11306 ft 382 kts 314°
2026-05-05 17:06 51.08752 0.40801 11057 ft 380 kts 316°
2026-05-05 17:07 51.10669 0.37915 10868 ft 379 kts 316°
2026-05-05 17:07 51.12575 0.35038 10698 ft 374 kts 316°
2026-05-05 17:07 51.14418 0.32239 10492 ft 358 kts 316°
2026-05-05 17:07 51.16183 0.29556 10296 ft 344 kts 315°
2026-05-05 17:08 51.17900 0.26940 10092 ft 330 kts 315°
2026-05-05 17:08 51.19525 0.24454 9868 ft 318 kts 315°
2026-05-05 17:08 51.21093 0.22048 9636 ft 307 kts 315°
2026-05-05 17:08 51.22599 0.19729 9396 ft 297 kts 315°
2026-05-05 17:09 51.24059 0.17479 9057 ft 288 kts 315°
2026-05-05 17:09 51.25491 0.15275 8835 ft 284 kts 315°
2026-05-05 17:09 51.26910 0.13087 8612 ft 283 kts 315°
2026-05-05 17:09 51.28324 0.10908 8383 ft 283 kts 315°
2026-05-05 17:10 51.29732 0.08733 8246 ft 277 kts 315°
2026-05-05 17:10 51.31090 0.06633 8099 ft 266 kts 315°
2026-05-05 17:10 51.32380 0.04614 8032 ft 253 kts 313°
2026-05-05 17:10 51.33324 0.02352 7986 ft 242 kts 291°
2026-05-05 17:11 51.33848 -0.00184 7928 ft 241 kts 285°
2026-05-05 17:11 51.34321 -0.02798 7863 ft 242 kts 285°
2026-05-05 17:11 51.34789 -0.05350 7761 ft 242 kts 286°
2026-05-05 17:11 51.35272 -0.07959 7570 ft 241 kts 286°
2026-05-05 17:12 51.35751 -0.10532 7401 ft 241 kts 286°
2026-05-05 17:12 51.36229 -0.13093 7226 ft 241 kts 287°
2026-05-05 17:12 51.36706 -0.15653 7051 ft 237 kts 287°
2026-05-05 17:12 51.37174 -0.18162 6876 ft 234 kts 287°
2026-05-05 17:13 51.37633 -0.20629 6711 ft 234 kts 287°
2026-05-05 17:13 51.38105 -0.23157 6541 ft 234 kts 287°
2026-05-05 17:13 51.38569 -0.25651 6354 ft 233 kts 287°
2026-05-05 17:13 51.39030 -0.28134 6166 ft 233 kts 287°
2026-05-05 17:14 51.39307 -0.29630 6065 ft 233 kts 287°
2026-05-05 17:14 51.39732 -0.31924 5899 ft 232 kts 287°
2026-05-05 17:14 51.40189 -0.34393 5692 ft 232 kts 287°
2026-05-05 17:14 51.40641 -0.36840 5483 ft 231 kts 287°
2026-05-05 17:15 51.41097 -0.39308 5285 ft 231 kts 287°
2026-05-05 17:15 51.41549 -0.41762 5078 ft 230 kts 287°
2026-05-05 17:15 51.42002 -0.44222 4886 ft 230 kts 287°
2026-05-05 17:15 51.42454 -0.46675 4668 ft 229 kts 288°
2026-05-05 17:16 51.42905 -0.49131 4467 ft 229 kts 287°
2026-05-05 17:16 51.43353 -0.51580 4264 ft 229 kts 288°
2026-05-05 17:16 51.43800 -0.54025 4058 ft 228 kts 288°
2026-05-05 17:16 51.44245 -0.56458 3858 ft 228 kts 288°
2026-05-05 17:17 51.44690 -0.58897 3652 ft 227 kts 288°
2026-05-05 17:17 51.45132 -0.61324 3455 ft 227 kts 288°
2026-05-05 17:17 51.45577 -0.63755 3268 ft 227 kts 289°
2026-05-05 17:17 51.46019 -0.66180 3053 ft 226 kts 288°
2026-05-05 17:18 51.46446 -0.68544 2848 ft 216 kts 288°
2026-05-05 17:18 51.46861 -0.70836 2649 ft 207 kts 289°
2026-05-05 17:18 51.47252 -0.73001 2524 ft 195 kts 289°
2026-05-05 17:18 51.47623 -0.75022 2506 ft 184 kts 291°
2026-05-05 17:19 51.48205 -0.76827 2504 ft 184 kts 311°
2026-05-05 17:19 51.49194 -0.78088 2495 ft 181 kts 338°
2026-05-05 17:19 51.50404 -0.78514 2497 ft 178 kts
2026-05-05 17:19 51.51591 -0.78105 2490 ft 176 kts 24°
2026-05-05 17:20 51.52576 -0.76940 2493 ft 177 kts 47°
2026-05-05 17:20 51.53179 -0.75216 2490 ft 180 kts 70°
2026-05-05 17:20 51.53283 -0.73216 2492 ft 183 kts 95°
2026-05-05 17:20 51.52850 -0.71341 2490 ft 174 kts 120°
2026-05-05 17:21 51.52025 -0.70002 2503 ft 168 kts 143°
2026-05-05 17:21 51.50941 -0.69258 2503 ft 171 kts 165°
2026-05-05 17:21 51.49758 -0.68942 2489 ft 173 kts 171°
2026-05-05 17:22 51.47747 -0.67291 2446 ft 168 kts 113°
2026-05-05 17:22 51.47551 -0.65485 2225 ft 163 kts 83°
2026-05-05 17:22 51.47683 -0.63694 1992 ft 161 kts 81°
2026-05-05 17:22 51.47743 -0.61932 1756 ft 154 kts 87°
2026-05-05 17:23 51.47694 -0.60265 1539 ft 145 kts 88°
2026-05-05 17:23 51.47708 -0.58674 1354 ft 141 kts 86°
2026-05-05 17:23 51.47719 -0.57150 1159 ft 134 kts 86°
2026-05-05 17:23 51.47722 -0.55657 993 ft 133 kts 86°
2026-05-05 17:24 51.47727 -0.54180 810 ft 135 kts 87°
2026-05-05 17:24 51.47733 -0.52660 630 ft 137 kts 86°
2026-05-05 17:24 51.47738 -0.51140 461 ft 138 kts 86°
2026-05-05 17:24 51.47743 -0.49671 335 ft 137 kts 85°
2026-05-05 17:25 51.47752 -0.48052 97 ft 143 kts 86°
2026-05-05 17:25 51.47757 -0.47079 98 ft 112 kts 89°
2026-05-05 17:25 51.47756 -0.45927 93 ft 44 kts 90°
2026-05-05 17:25 51.47760 -0.45779 91 ft 0 kts 86°
2026-05-05 17:26 51.47760 -0.45757 91 ft 13 kts 89°
2026-05-05 17:26 51.47754 -0.45554 94 ft 19 kts 106°
2026-05-05 17:26 51.47666 -0.45471 94 ft 16 kts 180°
2026-05-05 17:26 51.47555 -0.45475 96 ft 14 kts 194°
2026-05-05 17:27 51.47507 -0.45589 97 ft 13 kts 265°
2026-05-05 17:27 51.47511 -0.45763 95 ft 18 kts 273°
2026-05-05 17:27 51.47517 -0.45952 93 ft 13 kts 271°
2026-05-05 17:27 51.47517 -0.46106 95 ft 15 kts 269°
2026-05-05 17:28 51.47514 -0.46300 92 ft 19 kts 269°
2026-05-05 17:28 51.47512 -0.46458 97 ft 11 kts 268°
2026-05-05 17:28 51.47514 -0.46590 98 ft 13 kts 271°
2026-05-05 17:28 51.47500 -0.46755 95 ft 17 kts 261°
2026-05-05 17:29 51.47493 -0.46955 96 ft 18 kts 268°
2026-05-05 17:29 51.47491 -0.47169 94 ft 21 kts 270°
2026-05-05 17:29 51.47491 -0.47384 93 ft 19 kts 270°
2026-05-05 17:29 51.47491 -0.47597 95 ft 18 kts 269°
2026-05-05 17:30 51.47490 -0.47806 93 ft 19 kts 269°
2026-05-05 17:30 51.47489 -0.47995 97 ft 15 kts 269°
2026-05-05 17:30 51.47488 -0.48168 96 ft 17 kts 270°
2026-05-05 17:30 51.47484 -0.48307 96 ft 9 kts 254°
2026-05-05 17:31 51.47438 -0.48363 96 ft 9 kts 187°
2026-05-05 17:31 51.47366 -0.48360 93 ft 12 kts 174°
2026-05-05 17:31 51.47329 -0.48309 97 ft 6 kts 134°
2026-05-05 17:31 51.47317 -0.48243 94 ft 7 kts 95°
2026-05-05 17:32 51.47317 -0.48222 93 ft 0 kts 91°